| time (UTC) | temp F | wind direction | speed MPH | gust MPH | rain 1hr in | rain 24hr in | rain mn in | humidity % | barometer mb |
| 20260504023417 | 65 | 59 | 10.0 | 10.0 | 0.00 | 0.00 | 0.00 | 29 | 1007.8 |
| 20260504023330 | 65 | 57 | 9.0 | 10.0 | 0.00 | 0.00 | 0.00 | 29 | 1007.8 |
| 20260504022416 | 66 | 61 | 9.0 | 10.0 | 0.00 | 0.00 | 0.00 | 30 | 1007.8 |
| 20260504022329 | 66 | 60 | 9.0 | 10.0 | 0.00 | 0.00 | 0.00 | 30 | 1007.8 |
| 20260504021420 | 67 | 66 | 7.0 | 10.0 | 0.00 | 0.00 | 0.00 | 30 | 1007.8 |
| 20260504021337 | 67 | 76 | 6.0 | 9.0 | 0.00 | 0.00 | 0.00 | 29 | 1007.8 |
| 20260504020427 | 68 | 62 | 5.0 | 9.0 | 0.00 | 0.00 | 0.00 | 28 | 1007.7 |
| 20260504020333 | 68 | 86 | 5.0 | 9.0 | 0.00 | 0.00 | 0.00 | 28 | 1007.7 |
| 20260504015423 | 69 | 60 | 7.0 | 9.0 | 0.00 | 0.00 | 0.00 | 27 | 1007.6 |
| 20260504015317 | 69 | 57 | 7.0 | 9.0 | 0.00 | 0.00 | 0.00 | 27 | 1007.5 |
| 20260504014425 | 69 | 60 | 8.0 | 9.0 | 0.00 | 0.00 | 0.00 | 28 | 1007.6 |
| 20260504014318 | 69 | 61 | 7.0 | 9.0 | 0.00 | 0.00 | 0.00 | 28 | 1007.5 |
| 20260504013450 | 70 | 67 | 3.0 | 4.0 | 0.00 | 0.00 | 0.00 | 28 | 1007.6 |
| 20260504013322 | 70 | 47 | 4.0 | 4.0 | 0.00 | 0.00 | 0.00 | 28 | 1007.6 |
| 20260504012413 | 71 | 51 | 3.0 | 6.0 | 0.00 | 0.00 | 0.00 | 27 | 1007.7 |
| 20260504012328 | 71 | 40 | 3.0 | 6.0 | 0.00 | 0.00 | 0.00 | 27 | 1007.7 |
| 20260504011419 | 73 | 66 | 4.0 | 6.0 | 0.00 | 0.00 | 0.00 | 27 | 1007.6 |
| 20260504011333 | 73 | 57 | 4.0 | 6.0 | 0.00 | 0.00 | 0.00 | 27 | 1007.7 |
| 20260504010425 | 74 | 38 | 3.0 | 6.0 | 0.00 | 0.00 | 0.00 | 27 | 1007.7 |
| 20260504010338 | 75 | 40 | 4.0 | 6.0 | 0.00 | 0.00 | 0.00 | 27 | 1007.8 |
| 20260504005428 | 76 | 49 | 4.0 | 7.0 | 0.00 | 0.00 | 0.00 | 23 | 1007.7 |
| 20260504005321 | 76 | 52 | 4.0 | 7.0 | 0.00 | 0.00 | 0.00 | 23 | 1007.7 |
| 20260504004413 | 78 | 34 | 3.0 | 5.0 | 0.00 | 0.00 | 0.00 | 24 | 1007.8 |
| 20260504004325 | 78 | 29 | 3.0 | 6.0 | 0.00 | 0.00 | 0.00 | 23 | 1007.8 |
| 20260504003417 | 79 | 65 | 4.0 | 7.0 | 0.00 | 0.00 | 0.00 | 22 | 1007.9 |
| 20260504003332 | 79 | 55 | 4.0 | 7.0 | 0.00 | 0.00 | 0.00 | 22 | 1007.9 |
| 20260504002422 | 79 | 39 | 3.0 | 8.0 | 0.00 | 0.00 | 0.00 | 20 | 1008.0 |
| 20260504002313 | 79 | 39 | 2.0 | 8.0 | 0.00 | 0.00 | 0.00 | 20 | 1007.9 |
| 20260504001425 | 80 | 15 | 4.0 | 11.0 | 0.00 | 0.00 | 0.00 | 21 | 1008.0 |
| 20260504001318 | 80 | 26 | 4.0 | 11.0 | 0.00 | 0.00 | 0.00 | 22 | 1008.0 |
| 20260504000431 | 80 | 56 | 6.0 | 11.0 | 0.00 | 0.00 | 0.00 | 21 | 1008.1 |
| 20260504000322 | 80 | 38 | 4.0 | 10.0 | 0.00 | 0.00 | 0.00 | 21 | 1008.1 |
| 20260503235433 | 80 | 24 | 8.0 | 13.0 | 0.00 | 0.00 | 0.00 | 20 | 1008.1 |
| 20260503235325 | 80 | 28 | 8.0 | 13.0 | 0.00 | 0.00 | 0.00 | 20 | 1008.1 |
| 20260503234420 | 81 | 49 | 8.0 | 13.0 | 0.00 | 0.00 | 0.00 | 21 | 1008.3 |
| 20260503234313 | 81 | 349 | 8.0 | 13.0 | 0.00 | 0.00 | 0.00 | 20 | 1008.3 |
| 20260503233424 | 81 | 26 | 9.0 | 15.0 | 0.00 | 0.00 | 0.00 | 20 | 1008.3 |
| 20260503233318 | 81 | 59 | 9.0 | 15.0 | 0.00 | 0.00 | 0.00 | 20 | 1008.3 |
| 20260503232410 | 81 | 40 | 6.0 | 15.0 | 0.00 | 0.00 | 0.00 | 20 | 1008.4 |
| 20260503232343 | 81 | 14 | 6.0 | 15.0 | 0.00 | 0.00 | 0.00 | 21 | 1008.4 |
| 20260503231413 | 81 | 22 | 8.0 | 14.0 | 0.00 | 0.00 | 0.00 | 21 | 1008.4 |
| 20260503231325 | 81 | 46 | 8.0 | 14.0 | 0.00 | 0.00 | 0.00 | 20 | 1008.4 |
| 20260503230416 | 82 | 360 | 7.0 | 15.0 | 0.00 | 0.00 | 0.00 | 21 | 1008.4 |
| 20260503230335 | 81 | 340 | 8.0 | 15.0 | 0.00 | 0.00 | 0.00 | 21 | 1008.4 |
| 20260503225446 | 81 | 344 | 9.0 | 13.0 | 0.00 | 0.00 | 0.00 | 21 | 1008.5 |
| 20260503225315 | 81 | 339 | 8.0 | 13.0 | 0.00 | 0.00 | 0.00 | 21 | 1008.6 |
| 20260503224427 | 80 | 319 | 4.0 | 11.0 | 0.00 | 0.00 | 0.00 | 22 | 1008.6 |
| 20260503224321 | 80 | 355 | 4.0 | 11.0 | 0.00 | 0.00 | 0.00 | 23 | 1008.6 |
| 20260503223411 | 81 | 315 | 4.0 | 14.0 | 0.00 | 0.00 | 0.00 | 21 | 1008.7 |
| 20260503223325 | 81 | 355 | 5.0 | 14.0 | 0.00 | 0.00 | 0.00 | 21 | 1008.7 |
| 20260503222436 | 80 | 35 | 8.0 | 16.0 | 0.00 | 0.00 | 0.00 | 21 | 1008.8 |
| 20260503222328 | 80 | 33 | 9.0 | 16.0 | 0.00 | 0.00 | 0.00 | 21 | 1008.8 |
| 20260503221418 | 81 | 355 | 6.0 | 16.0 | 0.00 | 0.00 | 0.00 | 21 | 1008.9 |
| 20260503221313 | 81 | 335 | 7.0 | 16.0 | 0.00 | 0.00 | 0.00 | 21 | 1009.0 |
| 20260503220444 | 82 | 5 | 11.0 | 19.0 | 0.00 | 0.00 | 0.00 | 21 | 1009.1 |
| 20260503220317 | 82 | 324 | 11.0 | 20.0 | 0.00 | 0.00 | 0.00 | 21 | 1009.1 |
| 20260503215449 | 81 | 345 | 7.0 | 12.0 | 0.00 | 0.00 | 0.00 | 25 | 1009.2 |
| 20260503215320 | 80 | 39 | 6.0 | 12.0 | 0.00 | 0.00 | 0.00 | 21 | 1009.2 |
| 20260503214414 | 81 | 298 | 6.0 | 19.0 | 0.00 | 0.00 | 0.00 | 19 | 1009.3 |
| 20260503214325 | 81 | 327 | 7.0 | 19.0 | 0.00 | 0.00 | 0.00 | 19 | 1009.4 |
| 20260503213417 | 81 | 10 | 5.0 | 13.0 | 0.00 | 0.00 | 0.00 | 20 | 1009.4 |
| 20260503213310 | 81 | 15 | 6.0 | 13.0 | 0.00 | 0.00 | 0.00 | 20 | 1009.5 |
| 20260503212421 | 82 | 309 | 12.0 | 18.0 | 0.00 | 0.00 | 0.00 | 20 | 1009.5 |
| 20260503212317 | 82 | 342 | 13.0 | 18.0 | 0.00 | 0.00 | 0.00 | 21 | 1009.6 |
| 20260503211429 | 82 | 360 | 12.0 | 19.0 | 0.00 | 0.00 | 0.00 | 21 | 1009.7 |
| 20260503211322 | 82 | 360 | 12.0 | 19.0 | 0.00 | 0.00 | 0.00 | 21 | 1009.7 |
| 20260503210414 | 82 | 43 | 10.0 | 17.0 | 0.00 | 0.00 | 0.00 | 21 | 1009.7 |
| 20260503210325 | 82 | 22 | 9.0 | 17.0 | 0.00 | 0.00 | 0.00 | 21 | 1009.8 |
| 20260503205417 | 82 | 51 | 9.0 | 21.0 | 0.00 | 0.00 | 0.00 | 21 | 1010.1 |
| 20260503205327 | 82 | 328 | 7.0 | 21.0 | 0.00 | 0.00 | 0.00 | 20 | 1010.1 |
| 20260503204418 | 82 | 360 | 6.0 | 14.0 | 0.00 | 0.00 | 0.00 | 22 | 1010.1 |
| 20260503204315 | 81 | 336 | 5.0 | 14.0 | 0.00 | 0.00 | 0.00 | 21 | 1010.1 |
| 20260503203427 | 82 | 330 | 14.0 | 20.0 | 0.00 | 0.00 | 0.00 | 22 | 1010.3 |
| 20260503203321 | 82 | 329 | 16.0 | 20.0 | 0.00 | 0.00 | 0.00 | 22 | 1010.3 |
| 20260503202433 | 81 | 340 | 14.0 | 19.0 | 0.00 | 0.00 | 0.00 | 21 | 1010.5 |
| 20260503202325 | 81 | 331 | 12.0 | 18.0 | 0.00 | 0.00 | 0.00 | 21 | 1010.5 |
| 20260503201416 | 81 | 338 | 12.0 | 21.0 | 0.00 | 0.00 | 0.00 | 22 | 1010.6 |
| 20260503201329 | 81 | 11 | 10.0 | 21.0 | 0.00 | 0.00 | 0.00 | 23 | 1010.7 |
| 20260503200441 | 81 | 342 | 11.0 | 19.0 | 0.00 | 0.00 | 0.00 | 22 | 1010.6 |
| 20260503200333 | 81 | 360 | 11.0 | 19.0 | 0.00 | 0.00 | 0.00 | 22 | 1010.6 |
| 20260503195421 | 82 | 348 | 8.0 | 20.0 | 0.00 | 0.00 | 0.00 | 22 | 1010.6 |
| 20260503195318 | 82 | 319 | 9.0 | 20.0 | 0.00 | 0.00 | 0.00 | 22 | 1010.7 |
| 20260503194430 | 82 | 327 | 13.0 | 18.0 | 0.00 | 0.00 | 0.00 | 24 | 1010.7 |
| 20260503194321 | 82 | 326 | 7.0 | 19.0 | 0.00 | 0.00 | 0.00 | 22 | 1010.7 |
| 20260503193413 | 82 | 324 | 14.0 | 22.0 | 0.00 | 0.00 | 0.00 | 24 | 1010.7 |
| 20260503193328 | 82 | 313 | 14.0 | 22.0 | 0.00 | 0.00 | 0.00 | 23 | 1010.7 |
| 20260503192437 | 83 | 355 | 7.0 | 18.0 | 0.00 | 0.00 | 0.00 | 22 | 1010.7 |
| 20260503192349 | 83 | 335 | 7.0 | 18.0 | 0.00 | 0.00 | 0.00 | 23 | 1010.7 |
| 20260503191420 | 83 | 320 | 5.0 | 19.0 | 0.00 | 0.00 | 0.00 | 25 | 1010.8 |
| 20260503191313 | 83 | 360 | 7.0 | 19.0 | 0.00 | 0.00 | 0.00 | 25 | 1010.8 |
| 20260503190444 | 82 | 321 | 7.0 | 18.0 | 0.00 | 0.00 | 0.00 | 24 | 1010.9 |
| 20260503190316 | 82 | 331 | 8.0 | 18.0 | 0.00 | 0.00 | 0.00 | 23 | 1011.0 |
| 20260503185411 | 82 | 336 | 9.0 | 16.0 | 0.00 | 0.00 | 0.00 | 24 | 1011.0 |
| 20260503185325 | 82 | 11 | 8.0 | 16.0 | 0.00 | 0.00 | 0.00 | 24 | 1011.0 |
| 20260503184415 | 82 | 319 | 13.0 | 20.0 | 0.00 | 0.00 | 0.00 | 24 | 1011.2 |
| 20260503184349 | 82 | 333 | 12.0 | 20.0 | 0.00 | 0.00 | 0.00 | 24 | 1011.2 |
| 20260503183419 | 82 | 330 | 9.0 | 17.0 | 0.00 | 0.00 | 0.00 | 24 | 1011.3 |
| 20260503183312 | 82 | 315 | 9.0 | 18.0 | 0.00 | 0.00 | 0.00 | 23 | 1011.4 |
| 20260503182425 | 83 | 355 | 13.0 | 20.0 | 0.00 | 0.00 | 0.00 | 25 | 1011.5 |
| 20260503182317 | 83 | 350 | 11.0 | 20.0 | 0.00 | 0.00 | 0.00 | 25 | 1011.5 |
| 20260503181448 | 82 | 240 | 8.0 | 16.0 | 0.00 | 0.00 | 0.00 | 26 | 1011.7 |
| 20260503181324 | 82 | 288 | 9.0 | 16.0 | 0.00 | 0.00 | 0.00 | 27 | 1011.7 |
| 20260503180427 | 80 | 330 | 8.0 | 15.0 | 0.00 | 0.00 | 0.00 | 27 | 1011.8 |
| 20260503180320 | 80 | 325 | 10.0 | 15.0 | 0.00 | 0.00 | 0.00 | 26 | 1011.9 |
| 20260503175451 | 80 | 309 | 13.0 | 17.0 | 0.00 | 0.00 | 0.00 | 26 | 1012.1 |
| 20260503175323 | 80 | 292 | 13.0 | 17.0 | 0.00 | 0.00 | 0.00 | 26 | 1012.1 |
| 20260503174415 | 80 | 228 | 8.0 | 15.0 | 0.00 | 0.00 | 0.00 | 25 | 1012.3 |
| 20260503174347 | 80 | 261 | 9.0 | 15.0 | 0.00 | 0.00 | 0.00 | 26 | 1012.3 |
| 20260503173417 | 80 | 262 | 8.0 | 16.0 | 0.00 | 0.00 | 0.00 | 28 | 1012.5 |
| 20260503173312 | 80 | 277 | 8.0 | 16.0 | 0.00 | 0.00 | 0.00 | 28 | 1012.5 |
| 20260503172444 | 80 | 248 | 10.0 | 17.0 | 0.00 | 0.00 | 0.00 | 27 | 1012.6 |
| 20260503172336 | 80 | 265 | 11.0 | 19.0 | 0.00 | 0.00 | 0.00 | 28 | 1012.7 |
| 20260503171426 | 79 | 244 | 14.0 | 24.0 | 0.00 | 0.00 | 0.00 | 26 | 1012.7 |
| 20260503171322 | 79 | 242 | 14.0 | 24.0 | 0.00 | 0.00 | 0.00 | 26 | 1012.7 |
| 20260503170413 | 78 | 256 | 14.0 | 23.0 | 0.00 | 0.00 | 0.00 | 27 | 1012.8 |
| 20260503170326 | 78 | 234 | 14.0 | 23.0 | 0.00 | 0.00 | 0.00 | 26 | 1012.7 |
| 20260503150418 | 68 | 202 | 12.0 | 19.0 | 0.00 | 0.00 | 0.00 | 38 | 1013.7 |
| 20260503150312 | 68 | 225 | 14.0 | 19.0 | 0.00 | 0.00 | 0.00 | 38 | 1013.7 |
| 20260503131412 | 48 | 236 | 11.0 | 14.0 | 0.00 | 0.00 | 0.00 | 67 | 1014.4 |
| 20260503131324 | 47 | 238 | 11.0 | 14.0 | 0.00 | 0.00 | 0.00 | 67 | 1014.4 |
| 20260503130415 | 46 | 245 | 10.0 | 14.0 | 0.00 | 0.00 | 0.00 | 68 | 1014.3 |
| 20260503130308 | 46 | 246 | 10.0 | 14.0 | 0.00 | 0.00 | 0.00 | 69 | 1014.3 |
| 20260503110413 | 40 | 230 | 13.0 | 16.0 | 0.00 | 0.00 | 0.00 | 73 | 1014.3 |
| 20260503110325 | 40 | 226 | 13.0 | 16.0 | 0.00 | 0.00 | 0.00 | 73 | 1014.3 |
| 20260503090415 | 41 | 222 | 10.0 | 12.0 | 0.00 | 0.00 | 0.00 | 69 | 1015.3 |
| 20260503090348 | 41 | 232 | 10.0 | 14.0 | 0.00 | 0.00 | 0.00 | 69 | 1015.3 |
| 20260503081416 | 44 | 227 | 10.0 | 12.0 | 0.00 | 0.00 | 0.00 | 62 | 1015.4 |
| 20260503081349 | 45 | 187 | 10.0 | 12.0 | 0.00 | 0.00 | 0.00 | 62 | 1015.4 |
| 20260503080438 | 46 | 207 | 10.0 | 15.0 | 0.00 | 0.00 | 0.00 | 60 | 1015.5 |
| 20260503080330 | 46 | 209 | 10.0 | 15.0 | 0.00 | 0.00 | 0.00 | 60 | 1015.5 |
| 20260503072415 | 51 | 186 | 12.0 | 16.0 | 0.00 | 0.00 | 0.00 | 52 | 1015.9 |
| 20260503072330 | 51 | 173 | 12.0 | 16.0 | 0.00 | 0.00 | 0.00 | 52 | 1016.0 |
| 20260503071439 | 52 | 180 | 12.0 | 20.0 | 0.00 | 0.00 | 0.00 | 50 | 1016.0 |
| 20260503071315 | 52 | 185 | 12.0 | 20.0 | 0.00 | 0.00 | 0.00 | 50 | 1016.0 |
| 20260503070425 | 52 | 177 | 13.0 | 20.0 | 0.00 | 0.00 | 0.00 | 49 | 1016.0 |
| 20260503070318 | 53 | 171 | 13.0 | 20.0 | 0.00 | 0.00 | 0.00 | 49 | 1015.9 |
| 20260503060316 | 54 | 166 | 16.0 | 24.0 | 0.00 | 0.00 | 0.00 | 46 | 1016.0 |
| 20260503054412 | 54 | 196 | 17.0 | 23.0 | 0.00 | 0.00 | 0.00 | 46 | 1016.0 |
| 20260503054321 | 54 | 170 | 16.0 | 23.0 | 0.00 | 0.00 | 0.00 | 46 | 1016.0 |
| 20260503053414 | 54 | 178 | 15.0 | 22.0 | 0.00 | 0.00 | 0.00 | 47 | 1016.0 |
| 20260503053325 | 53 | 192 | 15.0 | 22.0 | 0.00 | 0.00 | 0.00 | 47 | 1016.0 |
| 20260503052412 | 53 | 192 | 15.0 | 20.0 | 0.00 | 0.00 | 0.00 | 47 | 1016.0 |
| 20260503052322 | 53 | 203 | 15.0 | 19.0 | 0.00 | 0.00 | 0.00 | 47 | 1016.0 |
| 20260503051410 | 52 | 195 | 14.0 | 19.0 | 0.00 | 0.00 | 0.00 | 48 | 1016.1 |
| 20260503051343 | 52 | 201 | 14.0 | 19.0 | 0.00 | 0.00 | 0.00 | 48 | 1016.1 |
| 20260503050414 | 51 | 199 | 11.0 | 15.0 | 0.00 | 0.00 | 0.00 | 50 | 1016.1 |
| 20260503050324 | 51 | 198 | 11.0 | 16.0 | 0.00 | 0.00 | 0.00 | 51 | 1016.1 |
| 20260503045435 | 49 | 203 | 10.0 | 14.0 | 0.00 | 0.00 | 0.00 | 53 | 1016.1 |
| 20260503045311 | 49 | 209 | 10.0 | 14.0 | 0.00 | 0.00 | 0.00 | 53 | 1016.1 |
| 20260503044423 | 49 | 204 | 11.0 | 13.0 | 0.00 | 0.00 | 0.00 | 55 | 1016.1 |
| 20260503044315 | 49 | 203 | 11.0 | 13.0 | 0.00 | 0.00 | 0.00 | 55 | 1016.1 |
| 20260503043426 | 50 | 214 | 10.0 | 12.0 | 0.00 | 0.00 | 0.00 | 53 | 1016.2 |
| 20260503043318 | 50 | 223 | 10.0 | 13.0 | 0.00 | 0.00 | 0.00 | 53 | 1016.3 |
| 20260503042429 | 50 | 217 | 10.0 | 11.0 | 0.00 | 0.00 | 0.00 | 53 | 1016.2 |
| 20260503042322 | 50 | 214 | 10.0 | 11.0 | 0.00 | 0.00 | 0.00 | 53 | 1016.2 |
| 20260503041434 | 50 | 213 | 10.0 | 12.0 | 0.00 | 0.00 | 0.00 | 53 | 1016.3 |
| 20260503041324 | 50 | 200 | 10.0 | 12.0 | 0.00 | 0.00 | 0.00 | 53 | 1016.3 |
| 20260503040414 | 51 | 201 | 10.0 | 12.0 | 0.00 | 0.00 | 0.00 | 52 | 1016.3 |
| 20260503040310 | 51 | 225 | 10.0 | 12.0 | 0.00 | 0.00 | 0.00 | 52 | 1016.4 |
| 20260503035421 | 51 | 223 | 10.0 | 14.0 | 0.00 | 0.00 | 0.00 | 51 | 1016.3 |
| 20260503035313 | 51 | 215 | 10.0 | 14.0 | 0.00 | 0.00 | 0.00 | 51 | 1016.4 |
| 20260503034426 | 52 | 215 | 10.0 | 15.0 | 0.00 | 0.00 | 0.00 | 51 | 1016.3 |
| 20260503034318 | 52 | 204 | 10.0 | 15.0 | 0.00 | 0.00 | 0.00 | 51 | 1016.3 |
| 20260503033430 | 52 | 213 | 10.0 | 14.0 | 0.00 | 0.00 | 0.00 | 50 | 1016.3 |
| 20260503033323 | 52 | 220 | 11.0 | 12.0 | 0.00 | 0.00 | 0.00 | 50 | 1016.3 |
| 20260503032415 | 52 | 209 | 10.0 | 13.0 | 0.00 | 0.00 | 0.00 | 51 | 1016.3 |
| 20260503032347 | 52 | 217 | 10.0 | 13.0 | 0.00 | 0.00 | 0.00 | 52 | 1016.3 |
| 20260503031417 | 52 | 215 | 12.0 | 14.0 | 0.00 | 0.00 | 0.00 | 53 | 1016.4 |
| 20260503031334 | 52 | 196 | 12.0 | 14.0 | 0.00 | 0.00 | 0.00 | 53 | 1016.3 |
| 20260503030424 | 52 | 194 | 11.0 | 13.0 | 0.00 | 0.00 | 0.00 | 52 | 1016.3 |
| 20260503030317 | 52 | 196 | 11.0 | 12.0 | 0.00 | 0.00 | 0.00 | 52 | 1016.3 |
| 20260503025428 | 52 | 204 | 11.0 | 13.0 | 0.00 | 0.00 | 0.00 | 52 | 1016.3 |
| 20260503025320 | 52 | 200 | 10.0 | 13.0 | 0.00 | 0.00 | 0.00 | 51 | 1016.2 |
| 20260503024412 | 53 | 191 | 11.0 | 12.0 | 0.00 | 0.00 | 0.00 | 51 | 1016.1 |
| 20260503024322 | 53 | 183 | 10.0 | 13.0 | 0.00 | 0.00 | 0.00 | 51 | 1016.2 |